Weather Roundup
Issued by NWS Corpus Christi, TX

Home | Current Version | Previous Version | Text Only | Print | Product List | Glossary On
Versions: 1 2 3 4 5 6 7 8 9 10 11 12 13 14 15 16 17 18 19 20 21 22 23 24 25 26 27 28 29 30 31 32 33 34 35 36 37 38 39 40 41 42 43 44 45 46 47 48 49 50
000
ASUS44 KCRP 242010
HRRCRP

SOUTH TEXAS REGIONAL WEATHER ROUNDUP
NATIONAL WEATHER SERVICE CORPUS CHRISTI TX
300 PM CDT THU APR 24 2014


TXZ229>244-242100-
...CORPUS CHRISTI AREA OBSERVATIONS...

CITY           SKY/WX    TMP DP  RH WIND       PRES   REMARKS
CORPUS CHRISTI CLOUDY    83  69  62 SE15      29.81F
NAS CORPUS CHR CLOUDY    80  71  74 SE21      29.82F
ROCKPORT       CLOUDY    78  70  76 SE16      29.84F
KINGSVILLE NAS PTSUNNY   86  72  62 SE13      29.80F HX  92
ALICE          CLOUDY    89  68  49 N5        29.79F HX  93
FALFURRIAS     CLOUDY    89  65  44 S3        29.78F HX  90
$$

...VICTORIA AREA OBSERVATIONS...

CITY           SKY/WX    TMP DP  RH WIND       PRES   REMARKS
VICTORIA       CLOUDY    82  67  60 S14       29.84F
BEEVILLE       CLOUDY    83  67  57 CALM      29.82F
PLEASANTON     MOSUNNY   83  64  53 CALM      29.85F
SAN ANTONIO    MOSUNNY   84  64  50 E8        29.84F
$$

...LAREDO AREA OBSERVATIONS...

CITY           SKY/WX    TMP DP  RH WIND       PRES   REMARKS
LAREDO         MOSUNNY   92  65  40 N13G21    29.83F HX  94
COTULLA        MOSUNNY   87  63  44 N6G17     29.83F
DEL RIO        SUNNY     96  25   8 N8G25     29.82F HX  90
MCALLEN        PTSUNNY   90  69  50 VRB3      29.76F HX  94
HEBBRONVILLE   CLOUDY    87  65  47 N6        29.81F
$$

...OTHER TEXAS OBSERVATIONS...

CITY           SKY/WX    TMP DP  RH WIND       PRES   REMARKS
BROWNSVILLE    PTSUNNY   86  69  56 S20G28    29.80S HX  90
HOUSTON        CLOUDY    82  64  54 SW8       29.85F
COL. STATION   CLOUDY    79  66  64 SW9       29.86R
AUSTIN         MOSUNNY   82  66  58 S8        29.84F
WACO           CLOUDY    87  50  27 N20G28    29.83R
FORT WORTH     MOSUNNY   82  52  35 NW24      29.82S
WICHITA FALLS  SUNNY     78  40  25 NW20G29   29.87S
LUBBOCK        MOSUNNY   74  23  15 N14       30.01F
EL PASO        MOSUNNY   77  12   8 SE5       30.04F
$$

...MARINE OBSERVATIONS...

STATION/POSITION TIME  SKY/WX   TEMP    WIND        PRES    VSBY  WAVE   SWELL
                                AIR SEA DIR/SP/G                  HT/PER HT/PER
                 (UTC)          (F)     (DEG/KT/KT) (MB)    (MI)  (FT/S) (FT/S)
PORT ARANSAS     2000            72 75  110/ 13/ 14 1010.4F
BUOY 90 E PORT A NOT AVBL
BUOY 45 SE BAFFI 2000            72 72  130/ 10/ 12 1010.0F         4/ 7   3/ 7
BUOY 200 E PT IS NOT AVBL
BUOY 15 E GALVES 2000            71 70  170/  8/ 10 1011.8F         3/ 5   3/ 5
$$



USA.gov is the U.S. government's official web portal to all federal, state and local government web resources and services.